User: anonymous   Login
Location: Saint-Restitut
(44.3351°N, 4.7915°E)
Time: 20:50:03
(UTC+00:00)
Language:

DMSP 5D-2 F13 DEB - Orbit

View from above orbital plane
View from above orbital plane
View from above satellite
View from above satellite

Ground track
Ground track

The orbit data is extracted from the following two-line orbital elements,

1 40515U 95015DB  24055.25356045  .00005897  00000-0  26192-2 0  9992
2 40515  98.8730  67.8623 0021803 218.1347 141.8288 14.23217895463876
Epoch (UTC): 24 February 2024 06:05:07
Eccentricity: 0.0021803
inclination: 98.8730°
perigee height: 799 km
apogee height: 830 km
right ascension of ascending node: 67.8623°
argument of perigee: 218.1347°
revolutions per day: 14.23217895
mean anomaly at epoch: 141.8288°
orbit number at epoch: 46387

The dashed part of the orbit path shows where the satellite is in the earth's shadow,  

DLR